星链-5080 (STARLINK-5080 )

导读

STARLINK-5080是美国太空探索技术公司(SpaceX)星链互联网星座中的一颗卫星,于2023年1月31日发射升空,属于星链项目批量部署的组网卫星。星链旨在构建全球卫星互联网,提供全球覆盖的高速互联网服务,该卫星入轨后参与星座组网,进一步扩展了星链系统的服务覆盖范围与能力。

Basic Information
目录编号:
55437
目录名称:
STARLINK-5080
国际标识:
2023-014AY
轨道中心:
EARTH
卫星名称:
星链-5080
卫星全名:
星链-5080 (STARLINK-5080 )
卫星状态:
已陨落 最后检测时间 2024-10-23
发射日期:
2023-01-31 UTC
国别 :
美国 (US)
星等 :
--
Orbit Information
数据来源 国际轨道数据
星历时间: 2024-10-23T15:09:37+0800
轨道信息已过期643天
半长轴: 6526.593km
偏心率: 0.0003049
轨道倾角: 69.911°
近地点辐角 181.364°
升交点赤经 245.758°
平近点角 292.133°
近地点: 146.468km
远地点: 150.448km
周期: 87.456分钟
每日圈数: 16.465427
Detailed Information
固有亮度:
5
最大亮度:
2.5
卫星平台:
Starlink v1.5
覆盖范围:
全球
运营商:
太空探索技术公司
运营商所在国:
美国
制造商(研发单位):
太空探索技术公司
制造商所在国:
美国
使用方式:
暂无
Satellite Introduction
星链(Starlink)计划是由太空探索技术公司(SpaceX)提出的一个巨型低轨卫星互联网星座项目,计划在2019年至2024年间在太空搭建由约1.2万颗卫星组成的“星链”网络,其中1584颗将部署在地球上空550千米处的近地轨道,并从2020年开始工作。该卫星仍在工作。